Powrót do katalogu

STARLINK-3059

AktywnyŁącznośćVLEO
NORAD 49181·PAYLOAD·🇺🇸 United States

Wystrzelony Sep 14, 2021 z Vandenberg Space Force Base

Loading…

Następne Przeloty (najbliższe 24 godziny)

TLE

ŚwieżeSource: CelesTrak SupGP

Epoka: Sep 14, 2026, 20:47 UTC

1 49181C 21082BD  26257.86645833 -.00032841  00000+0 -27515-2 0  2579
2 49181  70.0021 177.4748 0003052 268.3596  95.1636 14.98356101    11

Śledź STARLINK-3059 w czasie rzeczywistym z AllMySat

Download on the App Store